TimeEET,TemperatureF,Dew PointF,Humidity,Sea Level PressureIn,VisibilityMPH,Wind Direction,Wind SpeedMPH,Gust SpeedMPH,PrecipitationIn,Events,Conditions,WindDirDegrees,DateUTC
12:00 AM,77.0,41.0,28,29.95,-9999.0,NW,10.4,-,N/A,,Clear,310,2012-10-22 22:00:00
1:00 AM,75.2,39.2,27,29.92,-9999.0,NW,12.7,-,N/A,,Clear,320,2012-10-22 23:00:00
2:00 AM,74,42,21,29.91,6,NW,11.5,,,,,320,2012-10-23 00:00:00
2:00 AM,73.4,42.8,33,29.92,-9999.0,NW,11.5,-,N/A,,Clear,320,2012-10-23 00:00:00
3:00 AM,71.6,42.8,35,29.92,-9999.0,NNW,10.4,-,N/A,,Clear,330,2012-10-23 01:00:00
4:00 AM,69.8,42.8,38,29.92,-9999.0,NNW,5.8,-,N/A,,Clear,340,2012-10-23 02:00:00
5:00 AM,69.8,39.2,33,29.95,-9999.0,North,3.5,-,N/A,,Clear,360,2012-10-23 03:00:00
6:00 AM,69.8,42.8,38,29.98,-9999.0,North,4.6,-,N/A,,Clear,360,2012-10-23 04:00:00
7:00 AM,73.4,44.6,36,29.98,-9999.0,North,4.6,-,N/A,,Clear,360,2012-10-23 05:00:00
8:00 AM,77,44,20,29.97,6,North,4.6,,,,,350,2012-10-23 06:00:00
8:00 AM,77.0,42.8,29,29.98,-9999.0,North,4.6,-,N/A,,Clear,350,2012-10-23 06:00:00
9:00 AM,80.6,42.8,26,29.98,-9999.0,North,6.9,-,N/A,,Clear,10,2012-10-23 07:00:00
10:00 AM,84.2,42.8,23,29.98,-9999.0,North,8.1,-,N/A,,Clear,10,2012-10-23 08:00:00
11:00 AM,87.8,42.8,21,29.98,-9999.0,North,5.8,-,N/A,,Clear,360,2012-10-23 09:00:00
12:00 PM,89.6,42.8,20,29.95,-9999.0,NW,3.5,-,N/A,,Clear,310,2012-10-23 10:00:00
1:00 PM,91.4,42.8,18,29.92,-9999.0,WNW,8.1,-,N/A,,Clear,300,2012-10-23 11:00:00
2:00 PM,95,43,9,29.85,6,South,5.8,,,,,180,2012-10-23 12:00:00
2:00 PM,95.0,42.8,16,29.89,-9999.0,South,5.8,-,N/A,,Clear,180,2012-10-23 12:00:00
3:00 PM,95.0,42.8,16,29.86,-9999.0,West,8.1,-,N/A,,Clear,270,2012-10-23 13:00:00
4:00 PM,95.0,42.8,16,29.86,-9999.0,SSE,6.9,-,N/A,,Clear,150,2012-10-23 14:00:00
5:00 PM,91.4,42.8,18,29.86,-9999.0,ENE,6.9,-,N/A,,Clear,70,2012-10-23 15:00:00
6:00 PM,87.8,42.8,21,29.89,-9999.0,Calm,Calm,-,N/A,,Clear,0,2012-10-23 16:00:00
7:00 PM,86.0,42.8,22,29.89,-9999.0,North,6.9,-,N/A,,Clear,360,2012-10-23 17:00:00
8:00 PM,83,42,15,29.88,6,North,4.6,,,,,0,2012-10-23 18:00:00
8:00 PM,82.4,42.8,25,29.92,-9999.0,North,4.6,-,N/A,,Clear,360,2012-10-23 18:00:00
9:00 PM,80.6,42.8,26,29.92,-9999.0,NW,6.9,-,N/A,,Clear,310,2012-10-23 19:00:00
10:00 PM,78.8,41.0,26,29.92,-9999.0,NW,6.9,-,N/A,,Clear,310,2012-10-23 20:00:00
11:00 PM,77.0,42.8,29,29.92,-9999.0,North,8.1,-,N/A,,Clear,360,2012-10-23 21:00:00